When you browse on this site, cookies collect data to enhance your experience and personalize the content and advertising you see.
Visit our Privacy Policy to learn more. By continuing to use the site, you agree to this use of cookies and data.

Previsão horária em Aarberg

Hoje, 27 Setembro, Domingo

Tempo Temperatura Precipitação Vento Pressão Humidade
00:00 +5°C° 0 mm 3 m/s 709 mmHg 94%
01:00 +5°C° 0.3 mm 3 m/s 709 mmHg 94%
02:00 +5°C° 0.3 mm 3 m/s 708 mmHg 94%
03:00 +5°C° 0.3 mm 3 m/s 708 mmHg 94%
04:00 +5°C° 0.1 mm 3 m/s 708 mmHg 93%
05:00 +5°C° 0.1 mm 3 m/s 708 mmHg 93%
06:00 +5°C° 0 mm 4 m/s 708 mmHg 93%
07:00 +6°C° 0 mm 4 m/s 708 mmHg 89%
08:00 +6°C° 0 mm 5 m/s 707 mmHg 86%
09:00 +7°C° 0 mm 6 m/s 707 mmHg 82%
10:00 +8°C° 0.1 mm 6 m/s 707 mmHg 80%
11:00 +8°C° 0.1 mm 6 m/s 707 mmHg 78%
12:00 +8°C° 0 mm 6 m/s 708 mmHg 78%
13:00 +8°C° 0 mm 6 m/s 708 mmHg 77%
14:00 +8°C° 0 mm 5 m/s 708 mmHg 76%
15:00 +9°C° 0 mm 5 m/s 707 mmHg 75%
16:00 +8°C° 0 mm 5 m/s 708 mmHg 79%
17:00 +7°C° 0 mm 4 m/s 708 mmHg 83%
18:00 +6°C° 0 mm 4 m/s 709 mmHg 86%
19:00 +7°C° 0 mm 3 m/s 709 mmHg 88%
20:00 +7°C° 0 mm 2 m/s 710 mmHg 89%
21:00 +7°C° 0 mm 2 m/s 710 mmHg 91%
22:00 +7°C° 0.1 mm 2 m/s 710 mmHg 91%
23:00 +8°C° 0.1 mm 1 m/s 710 mmHg 92%

Amanhã, 28 Setembro, Segunda-feira

Tempo Temperatura Precipitação Vento Pressão Humidade
00:00 +8°C° 0.1 mm 1 m/s 711 mmHg 92%
01:00 +7°C° 0 mm 1 m/s 710 mmHg 93%
02:00 +7°C° 0 mm 1 m/s 710 mmHg 94%
03:00 +7°C° 0 mm 1 m/s 710 mmHg 95%
04:00 +7°C° 0 mm 1 m/s 711 mmHg 94%
05:00 +7°C° 0 mm 1 m/s 711 mmHg 92%
06:00 +8°C° 0 mm 1 m/s 712 mmHg 91%
07:00 +9°C° 0 mm 1 m/s 712 mmHg 86%
08:00 +10°C° 0 mm 1 m/s 712 mmHg 81%
09:00 +11°C° 0 mm 1 m/s 712 mmHg 77%
10:00 +13°C° 0 mm 1 m/s 712 mmHg 71%
11:00 +14°C° 0 mm 1 m/s 712 mmHg 66%
12:00 +15°C° 0 mm 2 m/s 713 mmHg 61%
13:00 +15°C° 0.1 mm 2 m/s 713 mmHg 64%
14:00 +15°C° 0.1 mm 2 m/s 713 mmHg 67%
15:00 +14°C° 0.1 mm 2 m/s 713 mmHg 71%
16:00 +13°C° 0.3 mm 2 m/s 713 mmHg 78%
17:00 +12°C° 0.3 mm 2 m/s 714 mmHg 86%
18:00 +10°C° 0.3 mm 2 m/s 714 mmHg 93%
19:00 +9°C° 0.7 mm 2 m/s 715 mmHg 94%
20:00 +9°C° 0.7 mm 2 m/s 715 mmHg 95%
21:00 +9°C° 0.7 mm 2 m/s 716 mmHg 97%
22:00 +9°C° 1.4 mm 3 m/s 716 mmHg 97%
23:00 +10°C° 1.4 mm 3 m/s 716 mmHg 97%

Depois de amanhã, 29 Setembro, Terça-feira

Tempo Temperatura Precipitação Vento Pressão Humidade
00:00 +10°C° 1.4 mm 3 m/s 716 mmHg 97%
01:00 +10°C° 1.2 mm 3 m/s 716 mmHg 97%
02:00 +10°C° 1.2 mm 3 m/s 716 mmHg 97%
03:00 +10°C° 1.2 mm 3 m/s 717 mmHg 97%
04:00 +10°C° 1 mm 2 m/s 717 mmHg 97%
05:00 +10°C° 1 mm 2 m/s 717 mmHg 97%
06:00 +11°C° 1 mm 1 m/s 717 mmHg 97%
07:00 +11°C° 0.3 mm 1 m/s 717 mmHg 96%
08:00 +11°C° 0.3 mm 1 m/s 717 mmHg 96%
09:00 +11°C° 0.3 mm 1 m/s 718 mmHg 95%
10:00 +11°C° 0 mm 1 m/s 718 mmHg 93%
11:00 +12°C° 0 mm 1 m/s 718 mmHg 92%
12:00 +11°C° 0 mm 0 m/s 718 mmHg 90%
13:00 +12°C° 0 mm 0 m/s 718 mmHg 87%
14:00 +12°C° 0 mm 0 m/s 718 mmHg 84%
15:00 +14°C° 0 mm 1 m/s 718 mmHg 81%
16:00 +12°C° 0 mm 0 m/s 718 mmHg 85%
17:00 +11°C° 0 mm 0 m/s 718 mmHg 90%
18:00 +10°C° 0 mm 0 m/s 718 mmHg 94%
19:00 +9°C° 0 mm 0 m/s 718 mmHg 93%
20:00 +9°C° 0 mm 0 m/s 718 mmHg 93%
21:00 +9°C° 0 mm 0 m/s 718 mmHg 93%
22:00 +8°C° 0 mm 0 m/s 718 mmHg 92%
23:00 +8°C° 0 mm 0 m/s 717 mmHg 92%

30 Setembro, Quarta-feira

Tempo Temperatura Precipitação Vento Pressão Humidade
00:00 +8°C° 0 mm 0 m/s 717 mmHg 91%
01:00 +8°C° 0 mm 0 m/s 717 mmHg 92%
02:00 +8°C° 0 mm 0 m/s 717 mmHg 92%
03:00 +8°C° 0 mm 0 m/s 716 mmHg 92%
04:00 +8°C° 0 mm 0 m/s 716 mmHg 93%
05:00 +8°C° 0 mm 0 m/s 716 mmHg 93%
06:00 +7°C° 0 mm 0 m/s 716 mmHg 93%
07:00 +10°C° 0 mm 0 m/s 716 mmHg 86%
08:00 +12°C° 0 mm 0 m/s 716 mmHg 79%
09:00 +15°C° 0 mm 1 m/s 716 mmHg 72%
10:00 +18°C° 0 mm 1 m/s 716 mmHg 67%
11:00 +19°C° 0 mm 1 m/s 716 mmHg 62%
12:00 +20°C° 0 mm 1 m/s 715 mmHg 56%
13:00 +20°C° 0 mm 1 m/s 715 mmHg 57%
14:00 +20°C° 0 mm 1 m/s 715 mmHg 58%
15:00 +20°C° 0 mm 1 m/s 714 mmHg 59%
16:00 +16°C° 0 mm 1 m/s 714 mmHg 68%
17:00 +13°C° 0 mm 0 m/s 714 mmHg 76%
18:00 +11°C° 0 mm 0 m/s 714 mmHg 85%
19:00 +11°C° 0 mm 0 m/s 714 mmHg 86%
20:00 +10°C° 0 mm 0 m/s 713 mmHg 87%
21:00 +11°C° 0 mm 1 m/s 713 mmHg 88%
22:00 +11°C° 0 mm 1 m/s 713 mmHg 89%
23:00 +11°C° 0 mm 1 m/s 713 mmHg 90%

1 Outubro, Quinta-feira

Tempo Temperatura Precipitação Vento Pressão Humidade
00:00 +10°C° 0 mm 1 m/s 712 mmHg 90%
01:00 +10°C° 0 mm 1 m/s 712 mmHg 91%
02:00 +10°C° 0 mm 1 m/s 711 mmHg 91%
03:00 +10°C° 0 mm 1 m/s 711 mmHg 92%
04:00 +10°C° 0 mm 1 m/s 711 mmHg 92%
05:00 +10°C° 0 mm 1 m/s 710 mmHg 91%
06:00 +10°C° 0 mm 1 m/s 710 mmHg 91%
07:00 +12°C° 0 mm 1 m/s 710 mmHg 86%
08:00 +14°C° 0 mm 1 m/s 709 mmHg 80%
09:00 +15°C° 0 mm 2 m/s 709 mmHg 74%
10:00 +16°C° 0.1 mm 3 m/s 709 mmHg 72%
11:00 +15°C° 0.1 mm 4 m/s 709 mmHg 71%
12:00 +16°C° 0.1 mm 5 m/s 709 mmHg 69%
13:00 +14°C° 0.9 mm 5 m/s 709 mmHg 76%
14:00 +13°C° 0.9 mm 5 m/s 709 mmHg 83%
15:00 +12°C° 0.9 mm 4 m/s 709 mmHg 91%
16:00 +11°C° 0.8 mm 4 m/s 710 mmHg 92%
17:00 +10°C° 0.8 mm 3 m/s 710 mmHg 93%
18:00 +9°C° 0.8 mm 2 m/s 710 mmHg 94%
19:00 +9°C° 0.1 mm 2 m/s 710 mmHg 94%
20:00 +9°C° 0.1 mm 2 m/s 711 mmHg 94%
21:00 +8°C° 0.1 mm 2 m/s 711 mmHg 94%
22:00 +9°C° 0 mm 1 m/s 710 mmHg 94%
23:00 +9°C° 0 mm 1 m/s 710 mmHg 93%

2 Outubro, Sexta-feira

Tempo Temperatura Precipitação Vento Pressão Humidade
00:00 +8°C° 0 mm 1 m/s 710 mmHg 93%
01:00 +8°C° 0 mm 1 m/s 709 mmHg 93%
02:00 +8°C° 0 mm 1 m/s 709 mmHg 92%
03:00 +8°C° 0 mm 1 m/s 708 mmHg 92%
04:00 +8°C° 0 mm 1 m/s 708 mmHg 93%
05:00 +8°C° 0 mm 1 m/s 707 mmHg 93%
06:00 +8°C° 0 mm 1 m/s 707 mmHg 93%
07:00 +9°C° 0 mm 1 m/s 706 mmHg 89%
08:00 +11°C° 0 mm 1 m/s 706 mmHg 84%
09:00 +13°C° 0 mm 2 m/s 706 mmHg 79%
10:00 +14°C° 0 mm 2 m/s 705 mmHg 73%
11:00 +14°C° 0 mm 3 m/s 705 mmHg 67%
12:00 +16°C° 0 mm 3 m/s 704 mmHg 61%
13:00 +16°C° 0 mm 3 m/s 704 mmHg 63%
14:00 +14°C° 0 mm 3 m/s 703 mmHg 66%
15:00 +14°C° 0 mm 3 m/s 703 mmHg 69%
16:00 +14°C° 0.1 mm 2 m/s 702 mmHg 75%
17:00 +14°C° 0.1 mm 2 m/s 702 mmHg 81%
18:00 +13°C° 0.1 mm 2 m/s 702 mmHg 87%
19:00 +13°C° 0 mm 1 m/s 701 mmHg 88%
20:00 +12°C° 0 mm 1 m/s 700 mmHg 89%
21:00 +12°C° 0 mm 1 m/s 700 mmHg 90%
22:00 +12°C° 0 mm 1 m/s 699 mmHg 90%
23:00 +12°C° 0 mm 1 m/s 698 mmHg 91%
Mostrar mais